CES7866 LPLA-KBOS

Flight info

Callsign CES7866
Flight time N/A
Altitude 35000
Route LM DEVAN NOTMA 38N030W 39N040W 39N050W 40N060W DOVEY FERNZ OOSHN5
Aircraft B738/L-SDE3FGHIRWY/LB1

Departure

Time 2026-04-21 06:08
Airport Lajes Airport (LPLA)

Arrival

Time N/A
Airport Boston Logan International Airport (KBOS)
Time Latitude Longitude Altitude Speed Heading
2026-04-21 06:08 38.69920 -26.93468 11623 ft 374 kts 134°
2026-04-21 06:08 38.68068 -26.91019 11883 ft 393 kts 134°
2026-04-21 06:09 38.66145 -26.88468 12468 ft 401 kts 134°
2026-04-21 06:09 38.64214 -26.85889 13123 ft 407 kts 133°
2026-04-21 06:09 38.62255 -26.83267 13800 ft 411 kts 133°
2026-04-21 06:09 38.60925 -26.81488 14250 ft 414 kts 133°
2026-04-21 06:10 38.52148 -26.69763 16975 ft 431 kts 133°
2026-04-21 06:11 38.50055 -26.66966 17561 ft 434 kts 133°
2026-04-21 06:11 38.47987 -26.64202 18114 ft 438 kts 133°
2026-04-21 06:11 38.45869 -26.61371 18666 ft 441 kts 133°
2026-04-21 06:11 38.43749 -26.58538 19196 ft 445 kts 133°
2026-04-21 06:12 38.41619 -26.55693 19709 ft 448 kts 133°
2026-04-21 06:12 38.39466 -26.52820 20208 ft 451 kts 133°
2026-04-21 06:12 38.37279 -26.49900 20693 ft 454 kts 133°
2026-04-21 06:12 38.35115 -26.47010 21151 ft 458 kts 133°
2026-04-21 06:13 38.32910 -26.44062 21601 ft 461 kts 133°
2026-04-21 06:13 38.30709 -26.41120 22032 ft 463 kts 133°
2026-04-21 06:13 38.28490 -26.38155 22450 ft 466 kts 133°
2026-04-21 06:13 38.26193 -26.35194 22853 ft 469 kts 136°
2026-04-21 06:14 38.23661 -26.32535 23221 ft 472 kts 147°
2026-04-21 06:14 38.20744 -26.30668 23592 ft 474 kts 160°
2026-04-21 06:14 38.17633 -26.29374 23984 ft 476 kts 164°
2026-04-21 06:14 38.14359 -26.28480 24298 ft 479 kts 174°
2026-04-21 06:15 38.11042 -26.28518 24620 ft 482 kts 188°
2026-04-21 06:15 38.07747 -26.29275 25001 ft 483 kts 192°
2026-04-21 06:15 38.04509 -26.30429 25298 ft 486 kts 201°
2026-04-21 06:15 38.01530 -26.32414 25637 ft 487 kts 216°
2026-04-21 06:16 37.98904 -26.35130 26077 ft 487 kts 222°
2026-04-21 06:16 37.96481 -26.38109 26465 ft 487 kts 229°
2026-04-21 06:16 37.94528 -26.41575 26823 ft 487 kts 242°
2026-04-21 06:16 37.93255 -26.45542 27252 ft 486 kts 252°
2026-04-21 06:17 37.92306 -26.49608 27671 ft 485 kts 257°
2026-04-21 06:17 37.91782 -26.53832 28030 ft 485 kts 268°
2026-04-21 06:17 37.92064 -26.58090 28422 ft 484 kts 282°
2026-04-21 06:17 37.92865 -26.62195 28853 ft 483 kts 286°
2026-04-21 06:18 37.93943 -26.66189 29208 ft 483 kts 293°
2026-04-21 06:18 37.95628 -26.69883 29545 ft 482 kts 308°
2026-04-21 06:18 37.97901 -26.72961 29949 ft 481 kts 316°
2026-04-21 06:18 38.00406 -26.75778 30325 ft 480 kts 321°
2026-04-21 06:19 38.03168 -26.78128 30639 ft 480 kts 333°
2026-04-21 06:19 38.06267 -26.79596 30973 ft 479 kts 346°
2026-04-21 06:19 38.09521 -26.80425 31366 ft 477 kts 351°
2026-04-21 06:19 38.12835 -26.80878 31682 ft 477 kts 358°
2026-04-21 06:20 38.16122 -26.80538 31970 ft 477 kts 12°
2026-04-21 06:20 38.19338 -26.79480 32349 ft 475 kts 16°
2026-04-21 06:20 38.22460 -26.78131 32652 ft 475 kts 23°
2026-04-21 06:20 38.25350 -26.76111 32953 ft 475 kts 34°
2026-04-21 06:21 38.28069 -26.73820 33317 ft 473 kts 30°
2026-04-21 06:21 38.31059 -26.72066 33576 ft 474 kts 17°
2026-04-21 06:21 38.34292 -26.71305 33880 ft 473 kts
2026-04-21 06:21 38.37557 -26.71676 34164 ft 472 kts 346°
2026-04-21 06:22 38.40587 -26.73125 34457 ft 471 kts 332°
2026-04-21 06:22 38.43385 -26.75360 34786 ft 470 kts 324°
2026-04-21 06:22 38.46000 -26.77830 35079 ft 469 kts 321°
2026-04-21 06:22 38.48488 -26.80465 35354 ft 469 kts 318°
2026-04-21 06:23 38.50882 -26.83323 35646 ft 469 kts 315°
2026-04-21 06:23 38.53150 -26.86293 35923 ft 468 kts 313°
2026-04-21 06:23 38.55363 -26.89358 36008 ft 471 kts 311°
2026-04-21 06:24 38.59474 -26.95712 36000 ft 460 kts 308°
2026-04-21 06:24 38.63361 -27.02197 36002 ft 461 kts 307°
2026-04-21 06:25 38.67178 -27.08811 36001 ft 464 kts 306°